Location: Allen Fire Department Station 4
(33.1073°N, 96.6988°W)
Time: 11:03:33
(UTC+00:00)

Cosmos 836 Rocket - Pass Details

Date: 03 December 2021
Orbit: 758 x 777 km, 74.1° (Epoch: 24 January)

Event Time Altitude Azimuth Distance (km) Brightness Sun altitude
Exits shadow 12:09:07 - 342° (NNW) 2,964 7.2 -13.4°
Reaches altitude 10° 12:10:48 10° 341° (NNW) 2,307 6.6 -13.1°
Maximum altitude 12:16:02 82° 255° (WSW) 775 4.4 -12.0°
Drops below altitude 10° 12:21:13 10° 168° (SSE) 2,282 7.4 -11.0°
Sets 12:23:34 0° 167° (SSE) 3,202 8.2 -10.5°
